Regional Weather Roundup
Issued by NWS

Home | Current Version | Previous Version | Graphics & Text | Print | Product List | Glossary On
Versions: 1 2 3 4 5 6 7 8 9 10 11 12 13 14 15 16 17 18 19 20 21 22 23 24 25 26 27 28 29 30 31 32 33 34 35 36 37 38 39 40 41 42 43 44 45 46 47 48 49 50
000
ASUS43 KFSD 191202
RWRSD

WEATHER ROUNDUP FOR SOUTH DAKOTA
NATIONAL WEATHER SERVICE SIOUX FALLS SD
700 AM CDT SAT AUG 19 2017

NOTE: "FAIR" INDICATES FEW OR NO CLOUDS BELOW 12,000 FEET WITH NO
SIGNIFICANT WEATHER AND/OR OBSTRUCTIONS TO VISIBILITY.


SDZ001>005-009-010-012>017-191300-
NORTHWEST AND NORTH CENTRAL SOUTH DAKOTA

CITY           SKY/WX    TMP DP  RH WIND       PRES   REMARKS
BUFFALO          N/A     57  47  69 S8        29.80R
FAITH            N/A     56  52  86 S16       29.86F
MOBRIDGE       CLEAR     62  59  90 S10       29.85F
$$

SDZ012>016-024>037-041>051-057-063-072>074-191300-
SOUTHWEST AND SOUTH CENTRAL SOUTH DAKOTA

CITY           SKY/WX    TMP DP  RH WIND       PRES   REMARKS
RAPID CTY ARPT CLEAR     55  49  80 SE3       29.89S
PIERRE         CLEAR     58  54  86 SE8       29.88S
CUSTER         CLEAR     55  41  59 VRB7      30.05S
ELLSWORTH AFB  CLEAR     61  49  66 SW6       29.88S
PHILIP         CLEAR     63  54  72 SE7       29.88S
PINE RIDGE     CLEAR     63  52  67 W6        29.93R
SPEARFISH      FAIR      64  41  42 NW5       29.92S
WINNER         FAIR      66  53  63 S14G21    29.92F
$$

SDZ004>011-016>023-039-040-191300-
NORTHEAST SOUTH DAKOTA

CITY           SKY/WX    TMP DP  RH WIND       PRES   REMARKS
ABERDEEN       CLEAR     51  51 100 S7        29.92S FOG
WATERTOWN      PTCLDY    51  51 100 CALM      29.95R FOG
BROOKINGS      CLEAR     54  53  97 E3        29.97S
SISSETON         N/A     63  58  83 SW6       29.91R
$$

SDZ017-020-022-023-036>040-048>070-191300-
SOUTHEAST SOUTH DAKOTA

CITY           SKY/WX    TMP DP  RH WIND       PRES   REMARKS
SIOUX FALLS    PTCLDY    54  54 100 CALM      29.97S
HURON          CLEAR     58  56  93 S7        29.93S
CHAMBERLAIN    CLEAR     58  58 100 E5        29.93F
MITCHELL       CLEAR     56  55  97 E3        29.95S
YANKTON        CLEAR     53  52  96 NE3       29.97R FOG
$$

ABBREVIATIONS USED IN REMARKS
   TC - TEMPERATURE IN CELSIUS
  WCI - WIND CHILL INDEX
   HX - HEAT INDEX
  VSB - VISIBILITY





USA.gov is the U.S. government's official web portal to all federal, state and local government web resources and services.